FENGYUN 1C DEB, 30124

Orbit data source: Space-Track

FENGYUN 1C DEB, 30124 is space debris in SSO originally from a launch on Mon, 10 May 1999 UTC launched from the Taiyaun Space Center, China (TSC). Fengyun 1C debris stems from the Chinese weather satellite Fengyun-1C, which was intentionally destroyed by a Chinese anti-satellite missile in 2007. This event dramatically increased the amount of space debris, with thousands of trackable fragments posing hazards to satellites and human spaceflight. The Fengyun 1C debris cloud has become a focal point in discussions about space sustainability and the need for international regulations to prevent the creation of new debris.

Loading next visibility...
Identifier
30124, 1999-025SD
Orbit
SSO
Country
Flag of CNCN / PRC
Related business
Manufacturer
Unknown
Mission
Spacecraft
Bus & Motor
Unknown
Mass
Unknown
Launch date (UTC)
1999-05-10 (27 years ago)
Launch vehicle
Unknown
Launch site
Taiyaun Space Center, China (TSC)
Object type
Payload
Rocket body
Debris
Shape & HBR
Unknown shape, 0.1 m
Radar Cross Section
Medium (>0.1 m² and <1 m²)

Expand to show TLE details & history
Last TLE update: 21 hours ago

TLE from 21 hours ago
0 FENGYUN 1C DEB
1 30124U 99025SD  26253.69802226  .00000898  00000-0  44123-3 0  9990
2 30124  99.1077 318.4207 0141724  58.5660  60.1026 14.15120531  7587
Epoch: 2026-09-10T16:45Z
TLE epoch observation values (Epoch: 2026-09-10T16:45:09.123Z)
Latitude
58.78582°
Longitude
-87.34215°
Altitude
801.886 km
Speed
7.484 km/s
True Right ascension
10h 14m 42s
True Declination
58° 38' 03"
Sunlit
Object was in daylight at epoch
Visualization orbit readout
Latitude
Unknown
Longitude
Unknown
Altitude
Unknown
Speed
Unknown
Apparent Right ascension
Unknown
Apparent Declination
Unknown
Sunlit
N/A
Visualization observer readout
Local Sidereal Time
06:15:55
Azimuth
Unknown
Elevation
Unknown
Doppler factor
Unknown
Orbital elements
Apogee altitude
941.371 km
Perigee altitude
736.801 km
Semi-major axis
7,217.223 km
Eccentricity
0.01417
Inclination
99.1077°
RAAN
318.4207°
Arg. of periapsis
58.566°
True anomaly
61.5229°
Mean anomaly
60.1026°
Eccentric anomaly
60.81151°
Mean motion
3.53988 °/min
Orbital period
101.7 mins
BSTAR
0.00044123
Loading maneuver chart data...
Computing Atmospheric mass density...
Loading historical data...
Loading historical data...
Loading historical data...
Loading historical data...
Loading historical data...
Loading historical data...
Loading historical data...

Documentation

Showing up to 5 results
|